Location: Sternwarte_Laufen
(47.9344°N, 12.9346°E)
Time: 07:02:17
(UTC+02:00)

ISS - Pass Details

Date: 04 October 2024
Orbit: 412 x 425 km, 51.6° (Epoch: 06 October)

Event Time Altitude Azimuth Distance (km) Brightness Sun altitude
Rises 19:09:39 0° 280° (W) 2,363 2.2 -5.7°
Reaches altitude 10° 19:13:39 10° 233° (SW) 1,497 -0.1 -6.3°
Maximum altitude 19:13:58 10° 227° (SW) 1,491 -0.2 -6.4°
Drops below altitude 10° 19:14:17 10° 222° (SW) 1,497 -0.3 -6.4°
Sets 19:18:16 0° 175° (S) 2,358 0.0 -7.1°
